Location: ???????????
(44.4062°N, 135.3991°E)
Time: 01:48:06
(UTC+00:00)

CZ-2D R/B - Pass Details

Date: 19 May 2025
Orbit: 790 x 841 km, 98.8° (Epoch: 16 June)

Event Time Altitude Azimuth Distance (km) Brightness Sun altitude
Rises 18:44:29 0° 2° (N) 3,403 6.0 -7.1°
Reaches altitude 10° 18:47:19 10° 348° (NNW) 2,467 5.0 -6.7°
Maximum altitude 18:51:24 22° 299° (WNW) 1,766 3.7 -6.1°
Drops below altitude 10° 18:55:28 10° 251° (WSW) 2,457 4.0 -5.5°
Enters shadow 18:56:36 - 244° (WSW) 2,805 4.2 -5.3°
